Location: Asheville, NC
(35.6000°N, 82.5500°W)
Time: 23:35:50
(UTC-04:00)

CUTE-I - Pass Details

Date: 09 January 2018
Orbit: 811 x 825 km, 98.7° (Epoch: 24 April)

Event Time Altitude Azimuth Distance (km) Brightness Sun altitude
Rises 19:08:40 0° 201° (SSW) 3,330 ? -18.7°
Reaches altitude 10° 19:11:32 10° 216° (SW) 2,399 ? -19.2°
Maximum altitude 19:15:31 21° 265° (W) 1,738 ? -20.0°
Drops below altitude 10° 19:19:31 10° 314° (NW) 2,404 ? -20.8°
Sets 19:22:25 0° 330° (NNW) 3,338 ? -21.4°
